SWA2862 KDEN-KSTL

Flight info

Callsign SWA2862
Flight time 1h 29m
Altitude 37000
Route EXTAN7 SHAYK ANX KAYLA3
Aircraft B738/M-SDE2E3FGHIRWXY/LB1

Departure

Time 2026-05-08 04:40
Airport Denver International Airport (KDEN)

Arrival

Time 2026-05-08 06:09
Airport St. Louis Lambert International Airport (KSTL)
Time Latitude Longitude Altitude Speed Heading
2026-05-08 03:41 39.86351 -104.67107 5386 ft 0 kts 206°
2026-05-08 04:18 39.86352 -104.67106 5386 ft 1 kts 206°
2026-05-08 04:19 39.86364 -104.67099 5382 ft 3 kts 206°
2026-05-08 04:19 39.86383 -104.67087 5386 ft 3 kts 206°
2026-05-08 04:19 39.86401 -104.67076 5386 ft 3 kts 206°
2026-05-08 04:19 39.86419 -104.67064 5383 ft 3 kts 206°
2026-05-08 04:20 39.86421 -104.67063 5383 ft 12 kts 206°
2026-05-08 04:27 39.86413 -104.67085 5386 ft 7 kts 261°
2026-05-08 04:27 39.86413 -104.67171 5386 ft 10 kts 269°
2026-05-08 04:27 39.86412 -104.67258 5386 ft 10 kts 271°
2026-05-08 04:27 39.86413 -104.67343 5385 ft 9 kts 270°
2026-05-08 04:28 39.86414 -104.67431 5385 ft 11 kts 270°
2026-05-08 04:28 39.86414 -104.67543 5385 ft 14 kts 270°
2026-05-08 04:28 39.86416 -104.67684 5385 ft 17 kts 270°
2026-05-08 04:28 39.86417 -104.67836 5385 ft 13 kts 270°
2026-05-08 04:29 39.86421 -104.67917 5385 ft 9 kts 285°
2026-05-08 04:29 39.86460 -104.67968 5383 ft 8 kts 318°
2026-05-08 04:29 39.86478 -104.68031 5385 ft 7 kts 272°
2026-05-08 04:29 39.86479 -104.68097 5385 ft 7 kts 270°
2026-05-08 04:30 39.86464 -104.68157 5382 ft 7 kts 236°
2026-05-08 04:30 39.86435 -104.68209 5381 ft 8 kts 243°
2026-05-08 04:30 39.86426 -104.68329 5365 ft 17 kts 271°
2026-05-08 04:30 39.86426 -104.68366 5363 ft 1 kts 265°
2026-05-08 04:31 39.86420 -104.68381 5364 ft 2 kts 234°
2026-05-08 04:31 39.86406 -104.68387 5362 ft 2 kts 187°
2026-05-08 04:31 39.86380 -104.68389 5364 ft 5 kts 183°
2026-05-08 04:31 39.86339 -104.68391 5365 ft 7 kts 181°
2026-05-08 04:32 39.86263 -104.68393 5364 ft 13 kts 181°
2026-05-08 04:32 39.86173 -104.68394 5367 ft 13 kts 180°
2026-05-08 04:32 39.86084 -104.68394 5368 ft 12 kts 181°
2026-05-08 04:32 39.85999 -104.68396 5365 ft 12 kts 180°
2026-05-08 04:33 39.85914 -104.68397 5366 ft 12 kts 180°
2026-05-08 04:33 39.85834 -104.68398 5368 ft 10 kts 181°
2026-05-08 04:33 39.85767 -104.68399 5369 ft 10 kts 181°
2026-05-08 04:33 39.85701 -104.68400 5370 ft 9 kts 180°
2026-05-08 04:34 39.85637 -104.68400 5370 ft 10 kts 179°
2026-05-08 04:34 39.85561 -104.68399 5371 ft 11 kts 179°
2026-05-08 04:34 39.85485 -104.68397 5372 ft 11 kts 179°
2026-05-08 04:34 39.85412 -104.68399 5372 ft 10 kts 182°
2026-05-08 04:35 39.85340 -104.68402 5373 ft 10 kts 181°
2026-05-08 04:35 39.85271 -104.68404 5374 ft 10 kts 181°
2026-05-08 04:35 39.85214 -104.68439 5372 ft 11 kts 245°
2026-05-08 04:35 39.85205 -104.68557 5369 ft 14 kts 269°
2026-05-08 04:36 39.85203 -104.68690 5364 ft 15 kts 269°
2026-05-08 04:36 39.85201 -104.68838 5357 ft 17 kts 268°
2026-05-08 04:36 39.85197 -104.69000 5352 ft 19 kts 268°
2026-05-08 04:36 39.85195 -104.69174 5347 ft 19 kts 270°
2026-05-08 04:37 39.85198 -104.69344 5341 ft 18 kts 272°
2026-05-08 04:37 39.85203 -104.69513 5333 ft 19 kts 270°
2026-05-08 04:37 39.85222 -104.69652 5335 ft 14 kts 323°
2026-05-08 04:37 39.85257 -104.69660 5336 ft 0 kts 359°
2026-05-08 04:39 39.85398 -104.69659 5337 ft 53 kts
2026-05-08 04:39 39.85987 -104.69649 5340 ft 118 kts
2026-05-08 04:39 39.87010 -104.69634 5342 ft 173 kts
2026-05-08 04:39 39.88275 -104.69526 5792 ft 190 kts
2026-05-08 04:40 39.89608 -104.69509 6617 ft 187 kts 341°
2026-05-08 04:40 39.90830 -104.69904 7434 ft 189 kts
2026-05-08 04:40 39.92098 -104.69183 7653 ft 217 kts 45°
2026-05-08 04:40 39.92729 -104.67306 7822 ft 243 kts 86°
2026-05-08 04:41 39.92280 -104.65113 8006 ft 265 kts 126°
2026-05-08 04:41 39.91065 -104.63248 8333 ft 277 kts 121°
2026-05-08 04:41 39.90414 -104.60908 8864 ft 279 kts 101°
2026-05-08 04:41 39.89981 -104.58416 9459 ft 283 kts 100°
2026-05-08 04:42 39.89543 -104.55888 10007 ft 288 kts 100°
2026-05-08 04:42 39.89094 -104.53335 10585 ft 289 kts 100°
2026-05-08 04:42 39.88641 -104.50816 11147 ft 292 kts 100°
2026-05-08 04:42 39.88159 -104.48156 11379 ft 313 kts 100°
2026-05-08 04:43 39.87634 -104.45281 11584 ft 336 kts 101°
2026-05-08 04:43 39.87069 -104.42226 11763 ft 358 kts 101°
2026-05-08 04:43 39.86466 -104.38995 12117 ft 373 kts 101°
2026-05-08 04:43 39.85851 -104.35738 12720 ft 378 kts 101°
2026-05-08 04:44 39.85216 -104.32392 13436 ft 381 kts 101°
2026-05-08 04:44 39.84578 -104.29033 14141 ft 383 kts 101°
2026-05-08 04:44 39.83933 -104.25644 14769 ft 387 kts 101°
2026-05-08 04:44 39.83283 -104.22227 15371 ft 390 kts 101°
2026-05-08 04:45 39.82628 -104.18787 15980 ft 394 kts 101°
2026-05-08 04:45 39.81971 -104.15343 16577 ft 397 kts 101°
2026-05-08 04:45 39.81300 -104.11837 17175 ft 401 kts 101°
2026-05-08 04:45 39.80624 -104.08304 17778 ft 404 kts 101°
2026-05-08 04:46 39.79939 -104.04729 18347 ft 408 kts 101°
2026-05-08 04:46 39.79248 -104.01135 18860 ft 411 kts 101°
2026-05-08 04:46 39.78551 -103.97511 19388 ft 414 kts 101°
2026-05-08 04:46 39.77847 -103.93859 19942 ft 417 kts 101°
2026-05-08 04:47 39.77148 -103.90240 20462 ft 419 kts 101°
2026-05-08 04:47 39.76434 -103.86547 20945 ft 423 kts 101°
2026-05-08 04:47 39.75710 -103.82812 21432 ft 426 kts 101°
2026-05-08 04:47 39.74981 -103.79053 21924 ft 429 kts 101°
2026-05-08 04:48 39.74278 -103.75262 22401 ft 431 kts 97°
2026-05-08 04:48 39.73865 -103.71460 22865 ft 432 kts 93°
2026-05-08 04:48 39.73561 -103.67562 23355 ft 434 kts 91°
2026-05-08 04:48 39.73288 -103.63643 23765 ft 437 kts 91°
2026-05-08 04:49 39.73014 -103.59696 24151 ft 439 kts 91°
2026-05-08 04:49 39.72827 -103.57068 24402 ft 441 kts 91°
2026-05-08 04:49 39.72533 -103.53091 24800 ft 443 kts 92°
2026-05-08 04:49 39.72121 -103.47750 25316 ft 446 kts 92°
2026-05-08 04:50 39.71910 -103.45082 25554 ft 448 kts 92°
2026-05-08 04:50 39.71587 -103.41052 25898 ft 450 kts 92°
2026-05-08 04:50 39.71150 -103.35666 26373 ft 453 kts 92°
2026-05-08 04:50 39.70925 -103.32907 26612 ft 455 kts 92°
2026-05-08 04:51 39.70589 -103.28808 26949 ft 457 kts 92°
2026-05-08 04:51 39.70250 -103.24687 27279 ft 460 kts 92°
2026-05-08 04:51 39.69913 -103.20601 27603 ft 462 kts 92°
2026-05-08 04:51 39.69569 -103.16442 27926 ft 464 kts 92°
2026-05-08 04:52 39.69222 -103.12264 28254 ft 466 kts 92°
2026-05-08 04:52 39.68871 -103.08058 28542 ft 469 kts 92°
2026-05-08 04:52 39.68517 -103.03838 28829 ft 471 kts 92°
2026-05-08 04:52 39.68159 -102.99592 29144 ft 473 kts 92°
2026-05-08 04:53 39.67798 -102.95326 29445 ft 475 kts 92°
2026-05-08 04:53 39.67440 -102.91114 29715 ft 477 kts 92°
2026-05-08 04:53 39.67073 -102.86816 29981 ft 479 kts 92°
2026-05-08 04:53 39.66704 -102.82508 30212 ft 481 kts 92°
2026-05-08 04:54 39.66332 -102.78190 30465 ft 482 kts 92°
2026-05-08 04:54 39.65957 -102.73858 30762 ft 481 kts 92°
2026-05-08 04:54 39.65580 -102.69539 31102 ft 480 kts 92°
2026-05-08 04:54 39.65204 -102.65235 31453 ft 478 kts 92°
2026-05-08 04:55 39.64827 -102.60938 31754 ft 478 kts 92°
2026-05-08 04:55 39.64454 -102.56700 32022 ft 478 kts 92°
2026-05-08 04:55 39.64075 -102.52408 32312 ft 478 kts 92°
2026-05-08 04:55 39.63695 -102.48127 32643 ft 476 kts 92°
2026-05-08 04:56 39.63315 -102.43861 32934 ft 476 kts 92°
2026-05-08 04:56 39.62933 -102.39587 33197 ft 476 kts 92°
2026-05-08 04:56 39.62549 -102.35315 33465 ft 476 kts 92°
2026-05-08 04:56 39.62164 -102.31050 33754 ft 475 kts 92°
2026-05-08 04:57 39.61778 -102.26795 34013 ft 474 kts 92°
2026-05-08 04:57 39.61391 -102.22536 34212 ft 475 kts 92°
2026-05-08 04:57 39.61003 -102.18287 34382 ft 476 kts 92°
2026-05-08 04:57 39.60616 -102.14059 34552 ft 477 kts 92°
2026-05-08 04:58 39.60222 -102.09776 34719 ft 478 kts 92°
2026-05-08 04:58 39.59825 -102.05479 34891 ft 479 kts 93°
2026-05-08 04:58 39.59427 -102.01187 35058 ft 480 kts 93°
2026-05-08 04:58 39.59051 -101.96874 35240 ft 481 kts 92°
2026-05-08 04:59 39.58707 -101.92548 35409 ft 481 kts 92°
2026-05-08 04:59 39.58376 -101.88230 35566 ft 482 kts 92°
2026-05-08 04:59 39.58048 -101.83951 35714 ft 483 kts 92°
2026-05-08 04:59 39.57710 -101.79604 35859 ft 484 kts 92°
2026-05-08 05:00 39.57366 -101.75251 35969 ft 486 kts 92°
2026-05-08 05:00 39.57015 -101.70882 36057 ft 488 kts 92°
2026-05-08 05:00 39.56659 -101.66481 36176 ft 490 kts 92°
2026-05-08 05:00 39.56299 -101.62077 36339 ft 490 kts 92°
2026-05-08 05:01 39.55938 -101.57678 36497 ft 491 kts 93°
2026-05-08 05:01 39.55581 -101.53337 36616 ft 492 kts 93°
2026-05-08 05:01 39.55217 -101.48916 36725 ft 492 kts 92°
2026-05-08 05:01 39.54852 -101.44511 36836 ft 490 kts 93°
2026-05-08 05:02 39.54282 -101.35675 36872 ft 493 kts 89°
2026-05-08 05:02 39.54023 -101.26741 36894 ft 497 kts 89°
2026-05-08 05:03 39.53801 -101.17814 36909 ft 500 kts 89°
2026-05-08 05:03 39.53535 -101.08781 36908 ft 501 kts 89°
2026-05-08 05:04 39.53236 -100.99757 36903 ft 501 kts 90°
2026-05-08 05:04 39.52924 -100.90795 36899 ft 500 kts 90°
2026-05-08 05:05 39.52606 -100.81803 36873 ft 499 kts 90°
2026-05-08 05:05 39.52284 -100.72821 36854 ft 497 kts 90°
2026-05-08 05:06 39.51960 -100.63960 36831 ft 495 kts 90°
2026-05-08 05:06 39.51626 -100.55034 36828 ft 494 kts 90°
2026-05-08 05:07 39.51288 -100.46144 36824 ft 494 kts 90°
2026-05-08 05:07 39.50944 -100.37307 36829 ft 494 kts 91°
2026-05-08 05:08 39.50591 -100.28398 36826 ft 495 kts 91°
2026-05-08 05:08 39.50231 -100.19472 36831 ft 496 kts 91°
2026-05-08 05:09 39.49862 -100.10513 36835 ft 498 kts 91°
2026-05-08 05:09 39.49486 -100.01572 36842 ft 500 kts 91°
2026-05-08 05:10 39.48905 -99.88032 36840 ft 503 kts 92°
2026-05-08 05:11 39.48510 -99.79033 36849 ft 504 kts 92°
2026-05-08 05:11 39.48104 -99.69958 36841 ft 505 kts 92°
2026-05-08 05:12 39.47690 -99.60865 36831 ft 505 kts 92°
2026-05-08 05:12 39.47272 -99.51820 36818 ft 506 kts 92°
2026-05-08 05:13 39.46844 -99.42727 36814 ft 505 kts 92°
2026-05-08 05:13 39.46409 -99.33631 36814 ft 505 kts 93°
2026-05-08 05:14 39.45970 -99.24605 36812 ft 505 kts 93°
2026-05-08 05:14 39.45521 -99.15506 36798 ft 505 kts 93°
2026-05-08 05:15 39.45068 -99.06471 36805 ft 506 kts 93°
2026-05-08 05:15 39.44604 -98.97367 36800 ft 506 kts 93°
2026-05-08 05:16 39.44136 -98.88321 36800 ft 507 kts 94°
2026-05-08 05:16 39.43657 -98.79194 36801 ft 508 kts 94°
2026-05-08 05:17 39.43169 -98.70048 36806 ft 509 kts 94°
2026-05-08 05:17 39.42677 -98.60942 36800 ft 511 kts 94°
2026-05-08 05:18 39.42172 -98.51752 36801 ft 512 kts 94°
2026-05-08 05:18 39.41659 -98.42534 36797 ft 514 kts 94°
2026-05-08 05:19 39.41140 -98.33342 36796 ft 515 kts 94°
2026-05-08 05:19 39.40609 -98.24080 36794 ft 516 kts 94°
2026-05-08 05:20 39.40073 -98.14856 36803 ft 517 kts 95°
2026-05-08 05:20 39.39526 -98.05559 36795 ft 518 kts 95°
2026-05-08 05:21 39.38971 -97.96255 36809 ft 519 kts 95°
2026-05-08 05:21 39.38411 -97.86997 36813 ft 519 kts 95°
2026-05-08 05:22 39.37839 -97.77663 36821 ft 520 kts 95°
2026-05-08 05:22 39.37259 -97.68334 36816 ft 520 kts 95°
2026-05-08 05:23 39.36672 -97.58999 36627 ft 521 kts 94°
2026-05-08 05:23 39.36082 -97.49737 36753 ft 518 kts 95°
2026-05-08 05:24 39.35482 -97.40439 36814 ft 519 kts 95°
2026-05-08 05:24 39.34873 -97.31114 36814 ft 520 kts 95°
2026-05-08 05:25 39.34258 -97.21828 36817 ft 522 kts 95°
2026-05-08 05:25 39.33630 -97.12446 36820 ft 524 kts 95°
2026-05-08 05:26 39.32992 -97.03039 36828 ft 526 kts 95°
2026-05-08 05:26 39.32350 -96.93665 36838 ft 527 kts 96°
2026-05-08 05:27 39.31694 -96.84217 36840 ft 528 kts 96°
2026-05-08 05:27 39.31031 -96.74768 36849 ft 527 kts 96°
2026-05-08 05:28 39.30360 -96.65329 36856 ft 526 kts 96°
2026-05-08 05:28 39.29688 -96.55975 36854 ft 525 kts 96°
2026-05-08 05:29 39.29005 -96.46582 36842 ft 525 kts 96°
2026-05-08 05:29 39.28314 -96.37183 36842 ft 524 kts 96°
2026-05-08 05:30 39.27624 -96.27887 36839 ft 523 kts 96°
2026-05-08 05:30 39.26921 -96.18530 36840 ft 523 kts 97°
2026-05-08 05:31 39.26210 -96.09173 36838 ft 523 kts 97°
2026-05-08 05:31 39.25491 -95.99815 36838 ft 523 kts 97°
2026-05-08 05:32 39.24769 -95.90501 36847 ft 524 kts 97°
2026-05-08 05:32 39.24034 -95.81125 36850 ft 524 kts 97°
2026-05-08 05:33 39.23296 -95.71811 36853 ft 526 kts 97°
2026-05-08 05:33 39.22543 -95.62399 36856 ft 527 kts 97°
2026-05-08 05:34 39.21782 -95.52985 36853 ft 527 kts 97°
2026-05-08 05:34 39.21018 -95.43625 36854 ft 528 kts 97°
2026-05-08 05:35 39.20239 -95.34178 36868 ft 529 kts 97°
2026-05-08 05:35 39.19457 -95.24794 36870 ft 530 kts 97°
2026-05-08 05:36 39.18789 -95.16847 36867 ft 531 kts 97°
2026-05-08 05:36 39.17991 -95.07433 36866 ft 531 kts 97°
2026-05-08 05:37 39.17178 -94.97942 36860 ft 532 kts 97°
2026-05-08 05:37 39.16357 -94.88447 36860 ft 532 kts 97°
2026-05-08 05:38 39.15534 -94.79017 36861 ft 532 kts 98°
2026-05-08 05:38 39.14697 -94.69526 36882 ft 533 kts 98°
2026-05-08 05:39 39.13852 -94.60029 36870 ft 533 kts 98°
2026-05-08 05:39 39.13005 -94.50592 36875 ft 533 kts 98°
2026-05-08 05:40 39.12145 -94.41101 36876 ft 533 kts 98°
2026-05-08 05:40 39.11276 -94.31603 36883 ft 533 kts 98°
2026-05-08 05:41 39.10407 -94.22176 36893 ft 533 kts 98°
2026-05-08 05:41 39.09514 -94.12679 36887 ft 533 kts 100°
2026-05-08 05:42 39.08164 -94.03287 36889 ft 532 kts 104°
2026-05-08 05:42 39.06607 -93.94023 36889 ft 532 kts 105°
2026-05-08 05:43 39.05043 -93.84673 36890 ft 533 kts 104°
2026-05-08 05:43 39.03520 -93.75323 36895 ft 534 kts 104°
2026-05-08 05:44 39.02005 -93.65949 36897 ft 535 kts 104°
2026-05-08 05:44 39.00483 -93.56577 36906 ft 536 kts 104°
2026-05-08 05:45 38.98954 -93.47237 36909 ft 537 kts 105°
2026-05-08 05:45 38.97404 -93.37827 36917 ft 537 kts 105°
2026-05-08 05:46 38.95844 -93.28411 36891 ft 539 kts 105°
2026-05-08 05:46 38.95053 -93.23661 36423 ft 546 kts 105°
2026-05-08 05:46 38.94267 -93.18948 35917 ft 544 kts 105°
2026-05-08 05:46 38.93472 -93.14189 35282 ft 545 kts 105°
2026-05-08 05:47 38.92672 -93.09417 34645 ft 546 kts 105°
2026-05-08 05:47 38.91867 -93.04626 33950 ft 549 kts 105°
2026-05-08 05:47 38.91058 -92.99823 33167 ft 551 kts 105°
2026-05-08 05:47 38.90243 -92.95005 32443 ft 552 kts 104°
2026-05-08 05:48 38.89436 -92.90241 31714 ft 552 kts 104°
2026-05-08 05:48 38.88619 -92.85425 30964 ft 552 kts 104°
2026-05-08 05:48 38.87800 -92.80612 30283 ft 551 kts 103°
2026-05-08 05:48 38.86984 -92.75829 29689 ft 545 kts 103°
2026-05-08 05:49 38.86173 -92.71087 29061 ft 540 kts 103°
2026-05-08 05:49 38.85371 -92.66413 28505 ft 533 kts 103°
2026-05-08 05:49 38.84575 -92.61782 27944 ft 527 kts 103°
2026-05-08 05:49 38.83797 -92.57274 27388 ft 521 kts 103°
2026-05-08 05:50 38.83015 -92.52751 26835 ft 515 kts 103°
2026-05-08 05:50 38.82241 -92.48284 26286 ft 510 kts 103°
2026-05-08 05:50 38.81472 -92.43861 25753 ft 505 kts 102°
2026-05-08 05:50 38.80710 -92.39489 25222 ft 499 kts 102°
2026-05-08 05:51 38.79954 -92.35160 24691 ft 494 kts 102°
2026-05-08 05:51 38.79215 -92.30931 24182 ft 489 kts 102°
2026-05-08 05:51 38.78472 -92.26697 23655 ft 485 kts 102°
2026-05-08 05:51 38.77735 -92.22505 23048 ft 480 kts 102°
2026-05-08 05:52 38.77003 -92.18342 22480 ft 475 kts 102°
2026-05-08 05:52 38.76279 -92.14238 21962 ft 469 kts 102°
2026-05-08 05:52 38.75560 -92.10174 21416 ft 464 kts 102°
2026-05-08 05:52 38.74848 -92.06154 20886 ft 460 kts 102°
2026-05-08 05:53 38.74141 -92.02173 20372 ft 455 kts 102°
2026-05-08 05:53 38.73452 -91.98298 20083 ft 446 kts 103°
2026-05-08 05:53 38.72769 -91.94464 19852 ft 436 kts 103°
2026-05-08 05:53 38.72105 -91.90712 19596 ft 427 kts 102°
2026-05-08 05:54 38.71454 -91.87022 19258 ft 421 kts 103°
2026-05-08 05:54 38.70817 -91.83414 18840 ft 419 kts 103°
2026-05-08 05:54 38.70172 -91.79779 18379 ft 418 kts 103°
2026-05-08 05:54 38.69531 -91.76152 17864 ft 417 kts 102°
2026-05-08 05:55 38.69129 -91.72481 17352 ft 414 kts 91°
2026-05-08 05:55 38.69119 -91.68812 16889 ft 410 kts 87°
2026-05-08 05:55 38.69171 -91.65158 16432 ft 408 kts 87°
2026-05-08 05:55 38.69225 -91.61535 15980 ft 405 kts 87°
2026-05-08 05:56 38.69265 -91.57933 15528 ft 403 kts 87°
2026-05-08 05:56 38.69292 -91.54408 15083 ft 400 kts 88°
2026-05-08 05:56 38.69310 -91.50848 14630 ft 398 kts 88°
2026-05-08 05:56 38.69324 -91.47310 14183 ft 396 kts 88°
2026-05-08 05:57 38.69336 -91.43783 13703 ft 394 kts 88°
2026-05-08 05:57 38.69348 -91.40284 13218 ft 392 kts 88°
2026-05-08 05:57 38.69360 -91.36844 12759 ft 388 kts 88°
2026-05-08 05:57 38.69373 -91.33395 12311 ft 385 kts 88°
2026-05-08 05:58 38.69385 -91.29974 11869 ft 382 kts 87°
2026-05-08 05:58 38.69396 -91.26582 11436 ft 378 kts 87°
2026-05-08 05:58 38.69405 -91.23231 11129 ft 372 kts 87°
2026-05-08 05:58 38.69414 -91.20010 10942 ft 362 kts 86°
2026-05-08 05:59 38.69482 -91.16813 10617 ft 356 kts 85°
2026-05-08 05:59 38.69579 -91.13662 10315 ft 351 kts 85°
2026-05-08 05:59 38.69747 -91.10568 10000 ft 344 kts 75°
2026-05-08 05:59 38.70557 -91.07794 9987 ft 323 kts 57°
2026-05-08 06:00 38.71654 -91.05359 9968 ft 308 kts 54°
2026-05-08 06:00 38.72725 -91.03067 9907 ft 298 kts 54°
2026-05-08 06:00 38.73771 -91.00823 9818 ft 289 kts 54°
2026-05-08 06:00 38.74779 -90.98619 9592 ft 285 kts 55°
2026-05-08 06:01 38.75774 -90.96424 9279 ft 284 kts 55°
2026-05-08 06:01 38.76766 -90.94236 8968 ft 283 kts 56°
2026-05-08 06:01 38.77753 -90.92053 8672 ft 282 kts 56°
2026-05-08 06:01 38.78736 -90.89877 8393 ft 281 kts 56°
2026-05-08 06:02 38.79704 -90.87740 8099 ft 280 kts 54°
2026-05-08 06:02 38.80901 -90.85804 7797 ft 274 kts 42°
2026-05-08 06:02 38.82256 -90.84088 7518 ft 273 kts 40°
2026-05-08 06:02 38.83630 -90.82404 7236 ft 272 kts 40°
2026-05-08 06:03 38.84990 -90.80711 6956 ft 272 kts 41°
2026-05-08 06:03 38.86320 -90.79023 6678 ft 272 kts 42°
2026-05-08 06:03 38.87655 -90.77308 6396 ft 271 kts 43°
2026-05-08 06:03 38.88986 -90.75589 6092 ft 271 kts 43°
2026-05-08 06:04 38.90315 -90.73861 5726 ft 273 kts 46°
2026-05-08 06:04 38.91241 -90.71728 5356 ft 278 kts 77°
2026-05-08 06:04 38.91207 -90.69278 5044 ft 275 kts 111°
2026-05-08 06:04 38.90231 -90.67229 4762 ft 268 kts 133°
2026-05-08 06:05 38.89088 -90.65376 4494 ft 267 kts 131°
2026-05-08 06:05 38.88005 -90.63442 4273 ft 265 kts 128°
2026-05-08 06:05 38.86991 -90.61484 4064 ft 262 kts 127°
2026-05-08 06:05 38.86011 -90.59522 3858 ft 259 kts 127°
2026-05-08 06:06 38.85066 -90.57606 3657 ft 255 kts 127°
2026-05-08 06:06 38.84110 -90.55659 3417 ft 254 kts 127°
2026-05-08 06:06 38.83181 -90.53773 3180 ft 252 kts 127°
2026-05-08 06:06 38.82276 -90.51917 3074 ft 240 kts 127°
2026-05-08 06:07 38.81403 -90.50135 2818 ft 233 kts 128°
2026-05-08 06:07 38.80546 -90.48394 2519 ft 227 kts 128°
2026-05-08 06:07 38.79708 -90.46695 2210 ft 222 kts 128°
2026-05-08 06:07 38.78892 -90.45037 1921 ft 218 kts 128°
2026-05-08 06:08 38.78110 -90.43446 1617 ft 208 kts 129°
2026-05-08 06:08 38.77364 -90.41931 1352 ft 195 kts 126°
2026-05-08 06:08 38.76661 -90.40501 1112 ft 182 kts 125°
2026-05-08 06:08 38.76017 -90.39195 874 ft 163 kts 125°
2026-05-08 06:09 38.75446 -90.38012 633 ft 154 kts 123°
2026-05-08 06:09 38.74919 -90.36901 563 ft 132 kts 124°
2026-05-08 06:09 38.74497 -90.36101 569 ft 85 kts 122°
2026-05-08 06:09 38.74278 -90.35664 579 ft 21 kts 136°
2026-05-08 06:10 38.74179 -90.35634 577 ft 0 kts 180°
2026-05-08 06:10 38.74178 -90.35634 577 ft 1 kts 179°
2026-05-08 06:10 38.74158 -90.35634 577 ft 6 kts 177°
2026-05-08 06:10 38.74098 -90.35603 578 ft 12 kts 173°
2026-05-08 06:11 38.74076 -90.35679 576 ft 12 kts 303°
2026-05-08 06:11 38.74123 -90.35770 573 ft 12 kts 303°
2026-05-08 06:11 38.74167 -90.35858 577 ft 12 kts 302°
2026-05-08 06:11 38.74209 -90.35946 573 ft 11 kts 299°
2026-05-08 06:12 38.74224 -90.36017 570 ft 5 kts 234°
2026-05-08 06:12 38.74201 -90.36054 569 ft 6 kts 234°
2026-05-08 06:12 38.74173 -90.36062 570 ft 0 kts 188°